Location: Althorst
(53.6379°N, 10.7715°E)
Time: 05:16:55
(UTC+00:00)

Cosmos 1980 - Pass Details

Date: 10 December 2019
Orbit: 838 x 849 km, 71.0° (Epoch: 28 January)

Event Time Altitude Azimuth Distance (km) Brightness Sun altitude
Rises 18:04:52 0° 231° (SW) 3,384 7.6 -26.4°
Reaches altitude 10° 18:07:23 10° 237° (WSW) 2,454 6.9 -26.7°
Maximum altitude 18:12:49 48° 312° (NW) 1,093 4.5 -27.5°
Enters shadow 18:14:44 35° 1° (N) 1,343 4.7 -27.8°
